Location: Ailingen
(47.6833°N, 9.5000°E)
Time: 08:28:36
(UTC+00:00)

CZ-2D R/B - Pass Details

Date: 18 November 2025
Orbit: 403 x 411 km, 97.4° (Epoch: 13 December)

Event Time Altitude Azimuth Distance (km) Brightness Sun altitude
Rises 16:25:05 0° 149° (SSE) 2,329 6.4 -7.4°
Reaches altitude 10° 16:27:08 10° 142° (SE) 1,470 5.3 -7.8°
Maximum altitude 16:30:05 38° 72° (ENE) 637 3.2 -8.2°
Drops below altitude 10° 16:33:02 10° 2° (N) 1,477 5.3 -8.7°
Sets 16:35:06 0° 355° (N) 2,341 6.4 -9.0°
